• In Hungary
  • List of Countries
  • For 7 days
  • Water Temperature
  • Satellite Maps
  • Weather Map
  • News
  • Weather Widgets
  • user-avatar
    Login

    Hourly Weather Bolshoy Kordon

    Today, 27 May, Sunday

    Time Temperature Precipitation Wind Pressure Humidity
    00:00 +2°C° 0 mm 3 mps 745 mmHg 85%
    01:00 +1°C° 0.1 mm 3 mps 745 mmHg 86%
    02:00 +1°C° 0.1 mm 3 mps 745 mmHg 87%
    03:00 +1°C° 0.1 mm 3 mps 745 mmHg 88%
    04:00 +1°C° 0 mm 3 mps 745 mmHg 88%
    05:00 +1°C° 0 mm 3 mps 745 mmHg 88%
    06:00 0°C° 0 mm 4 mps 744 mmHg 84%
    07:00 0°C° 0.2 mm 4 mps 744 mmHg 83%
    08:00 +1°C° 0.2 mm 4 mps 745 mmHg 82%
    09:00 +1°C° 0.2 mm 4 mps 745 mmHg 82%
    10:00 +1°C° 0.4 mm 4 mps 745 mmHg 81%
    11:00 +1°C° 0.4 mm 4 mps 745 mmHg 80%
    12:00 +1°C° 0 mm 4 mps 745 mmHg 81%
    13:00 +2°C° 0.2 mm 3 mps 745 mmHg 80%
    14:00 +3°C° 0.2 mm 3 mps 746 mmHg 80%
    15:00 +3°C° 0.2 mm 3 mps 746 mmHg 79%
    16:00 +4°C° 0 mm 3 mps 746 mmHg 76%
    17:00 +4°C° 0 mm 3 mps 746 mmHg 74%
    18:00 +5°C° 0 mm 3 mps 746 mmHg 72%
    19:00 +5°C° 0 mm 2 mps 746 mmHg 76%
    20:00 +4°C° 0 mm 2 mps 746 mmHg 80%
    21:00 +3°C° 0 mm 2 mps 746 mmHg 84%
    22:00 +3°C° 0.2 mm 2 mps 746 mmHg 84%
    23:00 +3°C° 0.2 mm 2 mps 745 mmHg 85%

    Tomorrow, 28 May, Monday

    Time Temperature Precipitation Wind Pressure Humidity
    00:00 +3°C° 0.2 mm 2 mps 745 mmHg 86%
    01:00 +3°C° 0.3 mm 2 mps 745 mmHg 86%
    02:00 +3°C° 0.3 mm 2 mps 745 mmHg 85%
    03:00 +2°C° 0.3 mm 2 mps 744 mmHg 85%
    04:00 +2°C° 0.3 mm 3 mps 744 mmHg 85%
    05:00 +2°C° 0.3 mm 3 mps 744 mmHg 84%
    06:00 +2°C° 0.3 mm 3 mps 744 mmHg 84%
    07:00 +3°C° 0.6 mm 3 mps 744 mmHg 84%
    08:00 +3°C° 0.6 mm 3 mps 743 mmHg 85%
    09:00 +3°C° 0.6 mm 3 mps 743 mmHg 85%
    10:00 +5°C° 0.3 mm 3 mps 743 mmHg 83%
    11:00 +7°C° 0.3 mm 3 mps 743 mmHg 80%
    12:00 +8°C° 0.3 mm 3 mps 743 mmHg 78%
    13:00 +9°C° 0 mm 2 mps 743 mmHg 76%
    14:00 +10°C° 0 mm 2 mps 743 mmHg 74%
    15:00 +11°C° 0 mm 1 mps 743 mmHg 71%
    16:00 +11°C° 0 mm 1 mps 743 mmHg 74%
    17:00 +11°C° 0 mm 1 mps 744 mmHg 76%
    18:00 +10°C° 0 mm 0 mps 744 mmHg 78%
    19:00 +10°C° 0 mm 1 mps 744 mmHg 83%
    20:00 +9°C° 0 mm 1 mps 744 mmHg 88%
    21:00 +8°C° 0 mm 1 mps 744 mmHg 93%
    22:00 +8°C° 0.1 mm 1 mps 745 mmHg 94%
    23:00 +6°C° 0.1 mm 2 mps 745 mmHg 94%

    Day after tomorrow, 29 May, Tuesday

    Time Temperature Precipitation Wind Pressure Humidity
    00:00 +6°C° 0.1 mm 2 mps 745 mmHg 95%
    01:00 +6°C° 0 mm 2 mps 745 mmHg 95%
    02:00 +6°C° 0 mm 2 mps 745 mmHg 95%
    03:00 +4°C° 0 mm 3 mps 745 mmHg 94%
    04:00 +5°C° 0 mm 3 mps 745 mmHg 91%
    05:00 +5°C° 0 mm 4 mps 745 mmHg 88%
    06:00 +6°C° 0 mm 4 mps 745 mmHg 84%
    07:00 +6°C° 0.1 mm 5 mps 745 mmHg 85%
    08:00 +7°C° 0.1 mm 5 mps 745 mmHg 85%
    09:00 +7°C° 0.1 mm 5 mps 745 mmHg 85%
    10:00 +8°C° 0.1 mm 6 mps 745 mmHg 84%
    11:00 +9°C° 0.1 mm 6 mps 745 mmHg 84%
    12:00 +10°C° 0.1 mm 6 mps 745 mmHg 84%
    13:00 +11°C° 0.1 mm 6 mps 744 mmHg 80%
    14:00 +13°C° 0.1 mm 6 mps 744 mmHg 76%
    15:00 +14°C° 0.1 mm 6 mps 744 mmHg 72%
    16:00 +14°C° 0.3 mm 6 mps 744 mmHg 73%
    17:00 +14°C° 0.3 mm 5 mps 744 mmHg 75%
    18:00 +14°C° 0.3 mm 5 mps 745 mmHg 76%
    19:00 +12°C° 0.2 mm 4 mps 745 mmHg 81%
    20:00 +11°C° 0.2 mm 4 mps 746 mmHg 87%
    21:00 +9°C° 0.2 mm 3 mps 746 mmHg 92%
    22:00 +8°C° 0 mm 2 mps 747 mmHg 93%
    23:00 +7°C° 0 mm 2 mps 747 mmHg 94%

    30 May, Wednesday

    Time Temperature Precipitation Wind Pressure Humidity
    00:00 +6°C° 0 mm 1 mps 747 mmHg 96%
    01:00 +6°C° 0 mm 1 mps 747 mmHg 96%
    02:00 +6°C° 0 mm 1 mps 747 mmHg 96%
    03:00 +6°C° 0 mm 1 mps 747 mmHg 96%
    04:00 +6°C° 0 mm 2 mps 747 mmHg 94%
    05:00 +7°C° 0 mm 2 mps 747 mmHg 92%
    06:00 +9°C° 0 mm 2 mps 746 mmHg 90%
    07:00 +11°C° 0.1 mm 3 mps 746 mmHg 84%
    08:00 +13°C° 0.1 mm 3 mps 745 mmHg 78%
    09:00 +16°C° 0.1 mm 3 mps 745 mmHg 73%
    10:00 +16°C° 0.6 mm 3 mps 744 mmHg 73%
    11:00 +17°C° 0.6 mm 3 mps 743 mmHg 73%
    12:00 +17°C° 0.6 mm 3 mps 742 mmHg 73%
    13:00 +19°C° 0.3 mm 3 mps 742 mmHg 66%
    14:00 +20°C° 0.3 mm 3 mps 741 mmHg 58%
    15:00 +22°C° 0.3 mm 4 mps 740 mmHg 51%
    16:00 +21°C° 0.1 mm 3 mps 740 mmHg 54%
    17:00 +20°C° 0.1 mm 3 mps 739 mmHg 58%
    18:00 +19°C° 0.1 mm 2 mps 739 mmHg 61%
    19:00 +18°C° 0.1 mm 2 mps 738 mmHg 65%
    20:00 +17°C° 0.1 mm 2 mps 738 mmHg 69%
    21:00 +15°C° 0.1 mm 2 mps 738 mmHg 72%
    22:00 +15°C° 0.3 mm 2 mps 737 mmHg 77%
    23:00 +13°C° 0.3 mm 3 mps 737 mmHg 81%

    31 May, Thursday

    Time Temperature Precipitation Wind Pressure Humidity
    00:00 +13°C° 0.3 mm 3 mps 736 mmHg 85%
    01:00 +13°C° 0.1 mm 4 mps 736 mmHg 83%
    02:00 +13°C° 0.1 mm 4 mps 736 mmHg 81%
    03:00 +13°C° 0.1 mm 5 mps 736 mmHg 79%
    04:00 +11°C° 0 mm 6 mps 736 mmHg 80%
    05:00 +10°C° 0 mm 6 mps 737 mmHg 81%
    06:00 +10°C° 0 mm 7 mps 738 mmHg 82%
    07:00 +9°C° 0.1 mm 6 mps 739 mmHg 81%
    08:00 +8°C° 0.1 mm 5 mps 741 mmHg 79%
    09:00 +8°C° 0.1 mm 5 mps 742 mmHg 78%
    10:00 +9°C° 0 mm 5 mps 743 mmHg 68%
    11:00 +10°C° 0 mm 5 mps 744 mmHg 59%
    12:00 +13°C° 0 mm 4 mps 745 mmHg 49%
    13:00 +13°C° 0 mm 5 mps 746 mmHg 44%
    14:00 +14°C° 0 mm 5 mps 746 mmHg 38%
    15:00 +15°C° 0 mm 5 mps 747 mmHg 32%
    16:00 +15°C° 0 mm 5 mps 747 mmHg 35%
    17:00 +14°C° 0 mm 5 mps 747 mmHg 38%
    18:00 +14°C° 0 mm 5 mps 748 mmHg 41%
    19:00 +13°C° 0 mm 4 mps 747 mmHg 47%
    20:00 +11°C° 0 mm 4 mps 747 mmHg 54%
    21:00 +10°C° 0 mm 4 mps 747 mmHg 60%
    22:00 +10°C° 0.1 mm 4 mps 746 mmHg 63%
    23:00 +9°C° 0.1 mm 5 mps 745 mmHg 66%

    1 June, Friday

    Time Temperature Precipitation Wind Pressure Humidity
    00:00 +9°C° 0.1 mm 6 mps 745 mmHg 69%
    01:00 +9°C° 0.3 mm 6 mps 744 mmHg 73%
    02:00 +9°C° 0.3 mm 6 mps 743 mmHg 78%
    03:00 +9°C° 0.3 mm 7 mps 743 mmHg 82%
    04:00 +10°C° 0.4 mm 7 mps 742 mmHg 83%
    05:00 +10°C° 0.4 mm 7 mps 742 mmHg 84%
    06:00 +11°C° 0.4 mm 7 mps 742 mmHg 84%
    07:00 +11°C° 0.3 mm 7 mps 741 mmHg 83%
    08:00 +13°C° 0.3 mm 6 mps 741 mmHg 81%
    09:00 +14°C° 0.3 mm 6 mps 741 mmHg 79%
    10:00 +14°C° 2.3 mm 7 mps 740 mmHg 82%
    11:00 +12°C° 2.3 mm 7 mps 739 mmHg 85%
    12:00 +12°C° 2.3 mm 8 mps 739 mmHg 88%
    13:00 +12°C° 0.7 mm 8 mps 739 mmHg 87%
    14:00 +13°C° 0.7 mm 8 mps 739 mmHg 86%
    15:00 +14°C° 0.7 mm 7 mps 740 mmHg 85%
    16:00 +14°C° 0.3 mm 7 mps 740 mmHg 80%
    17:00 +14°C° 0.3 mm 6 mps 741 mmHg 75%
    18:00 +14°C° 0.3 mm 6 mps 741 mmHg 70%
    19:00 +13°C° 0.1 mm 5 mps 742 mmHg 71%
    20:00 +12°C° 0.1 mm 5 mps 742 mmHg 72%
    21:00 +10°C° 0.1 mm 4 mps 743 mmHg 72%
    22:00 +10°C° 0 mm 4 mps 743 mmHg 73%
    23:00 +8°C° 0 mm 4 mps 744 mmHg 74%
    Show more